Jacksonville, FL

3:48 PM EDT on March 27, 2017 (GMT -0400)
Jacksonville International

Weather History for KJAX - October, 2012

Change the Weather History Date:

Friday, October 26, 2012

  Actual Average Record
Temperature  
Mean Temperature 73 °F 68 °F  
Max Temperature 77 °F 78 °F 89 °F (2010)
Min Temperature 69 °F 57 °F 38 °F (1980)
Degree Days  
Heating Degree Days 0 2  
Month to date heating degree days 2 16  
Since 1 July heating degree days 2 16  
Cooling Degree Days 8 4  
Month to date cooling degree days 212 179  
Year to date cooling degree days 2724 2565  
Growing Degree Days 24 (Base 50)    
Moisture  
Dew Point 66 °F    
Average Humidity 81    
Maximum Humidity 100    
Minimum Humidity 61    
Precipitation  
Precipitation 0.00 in 0.07 in 1.79 in (1985)
Month to date precipitation 3.01 3.56  
Year to date precipitation 50.83 47.11  
Snow  
Snow 0.00 in 0.00 in 0.00 in (2002)
Month to date snowfall 0.0 0.0  
Since 1 July snowfall 0.0 0.0  
Since 1 September snowfall 0.0 0.0  
Snow Depth 0.00 in    
Sea Level Pressure  
Sea Level Pressure 29.81 in    
Wind  
Wind Speed 13 mph (North)    
Max Wind Speed 28 mph    
Max Gust Speed 35 mph    
Visibility 9 miles    
Events      
T = Trace of Precipitation, MM = Missing Value Source: NWS Daily Summary

Daily Weather History Graph

Daily Weather History Graph

Search for Another Location

Airport or City:

Trip Planner

Search our weather history database for the weather conditions in past years. The results will help you decide how hot, cold, wet, or windy it might be!

Date:

Astronomy

Oct. 26, 2012 Rise Set
Actual Time 7:37 AM EDT 6:43 PM EDT
Civil Twilight 7:12 AM EDT 7:08 PM EDT
Nautical Twilight 6:44 AM EDT 7:36 PM EDT
Astronomical Twilight 6:16 AM EDT 8:04 PM EDT
Moon 4:50 PM EDT (10/26) 4:42 AM EDT (10/26)
Length of Visible Light 11h 55m
Length of Day
11h 06m
Waxing Gibbous, 91% of the Moon is Illuminated
Oct 26
Waxing Gibbous
Oct 29
Full
Nov 6
Last Quarter
Nov 13
New
Nov 20
First Quarter

Hourly Weather History & Observations

Time (EDT) Temp. Dew Point Humidity Pressure Visibility Wind Dir Wind Speed Gust Speed Precip Events Conditions
12:56 AM 73.0 °F 70.0 °F 90% 29.90 in 8.0 mi NNE 8.1 mph - N/A   Overcast
1:56 AM 72.0 °F 69.1 °F 91% 29.88 in 7.0 mi North 5.8 mph - N/A   Overcast
2:56 AM 71.1 °F 69.1 °F 93% 29.87 in 8.0 mi North 6.9 mph - N/A   Mostly Cloudy
3:56 AM 70.0 °F 69.1 °F 97% 29.86 in 7.0 mi North 5.8 mph - N/A   Overcast
4:56 AM 70.0 °F 69.1 °F 97% 29.85 in 7.0 mi NNW 8.1 mph - N/A   Overcast
5:56 AM 72.0 °F 70.0 °F 93% 29.85 in 7.0 mi North 10.4 mph - N/A   Overcast
6:36 AM 73.4 °F 69.8 °F 88% 29.84 in 8.0 mi NNE 11.5 mph - N/A   Mostly Cloudy
6:56 AM 73.0 °F 69.1 °F 87% 29.84 in 8.0 mi NNE 12.7 mph - N/A   Mostly Cloudy
7:56 AM 72.0 °F 69.1 °F 91% 29.84 in 7.0 mi NNE 9.2 mph - N/A   Overcast
8:41 AM 73.4 °F 69.8 °F 88% 29.85 in 7.0 mi NNE 13.8 mph - N/A   Overcast
8:56 AM 73.9 °F 70.0 °F 87% 29.86 in 7.0 mi NNE 11.5 mph - N/A   Overcast
9:56 AM 75.2 °F 69.8 °F 83% 29.87 in 8.0 mi NNE 15.0 mph 23.0 mph N/A   Overcast
10:56 AM 75.0 °F 69.1 °F 82% 29.86 in 9.0 mi North 13.8 mph 27.6 mph N/A   Overcast
11:56 AM 75.9 °F 68.0 °F 76% 29.86 in 10.0 mi NNE 16.1 mph 27.6 mph N/A   Overcast
12:56 PM 75.9 °F 66.9 °F 74% 29.84 in 10.0 mi NNE 20.7 mph 29.9 mph N/A   Overcast
1:25 PM 75.2 °F 66.2 °F 73% 29.82 in 10.0 mi NNE 20.7 mph 27.6 mph N/A   Overcast
1:56 PM 75.9 °F 66.0 °F 71% 29.81 in 10.0 mi NNE 18.4 mph 34.5 mph N/A   Overcast
2:49 PM 75.2 °F 64.4 °F 69% 29.79 in 10.0 mi NNE 23.0 mph 29.9 mph N/A   Overcast
2:56 PM 75.9 °F 64.9 °F 69% 29.79 in 10.0 mi NNE 17.3 mph 29.9 mph N/A   Overcast
3:56 PM 75.9 °F 64.9 °F 69% 29.77 in 10.0 mi NNE 15.0 mph 24.2 mph N/A   Overcast
4:56 PM 75.9 °F 64.0 °F 67% 29.75 in 10.0 mi North 19.6 mph 28.8 mph N/A   Overcast
5:56 PM 75.0 °F 64.0 °F 69% 29.76 in 10.0 mi North 12.7 mph 20.7 mph N/A   Overcast
6:56 PM 73.9 °F 64.0 °F 71% 29.76 in 10.0 mi NNW 10.4 mph - N/A   Mostly Cloudy
7:56 PM 73.0 °F 61.0 °F 66% 29.75 in 10.0 mi North 11.5 mph 21.9 mph N/A   Overcast
8:56 PM 73.0 °F 60.1 °F 64% 29.75 in 10.0 mi North 13.8 mph 24.2 mph N/A   Overcast
9:56 PM 72.0 °F 59.0 °F 64% 29.75 in 10.0 mi North 16.1 mph 21.9 mph N/A   Overcast
10:56 PM 71.1 °F 57.9 °F 63% 29.74 in 10.0 mi North 15.0 mph 24.2 mph N/A   Overcast
11:56 PM 70.0 °F 57.9 °F 65% 29.72 in 10.0 mi North 12.7 mph 23.0 mph N/A   Overcast